Montpelier, VT

11:10 AM EST on December 06, 2019 (GMT -0500)
Knapp State

Weather History for KMPV - July, 2019

Change the Weather History Date:

Wednesday, July 17, 2019

  Actual Average Record
Temperature  
Mean Temperature 72 °F 67 °F  
Max Temperature 78 °F 79 °F 93 °F (1982)
Min Temperature 65 °F 56 °F 43 °F (1966)
Degree Days  
Heating Degree Days 0 1  
Month to date heating degree days 6 23  
Since 1 June heating degree days 150 144  
Since 1 July heating degree days 6 23  
Cooling Degree Days 7 3  
Month to date cooling degree days 59 55  
Year to date cooling degree days 79 118  
Since 1 June cooling degree days 78 108  
Growing Degree Days 22 (Base 50)    
Moisture  
Dew Point 68 °F    
Average Humidity 87    
Maximum Humidity 100    
Minimum Humidity 73    
Precipitation  
Precipitation 0.65 in 0.13 in 1.41 in (2017)
Month to date precipitation 1.82 2.09  
Year to date precipitation 26.75 18.80  
Sea Level Pressure  
Sea Level Pressure 29.96 in    
Wind  
Wind Speed 4 mph (WNW)    
Max Wind Speed 13 mph    
Max Gust Speed 19 mph    
Visibility 7 miles    
Events Rain    
T = Trace of Precipitation, MM = Missing Value Source: NWS Daily Summary

Daily Weather History Graph

Daily Weather History Graph

Search for Another Location

Airport or City:

Astronomy

Jul. 17, 2019 Rise Set
Actual Time 5:22 AM EDT 8:30 PM EDT
Civil Twilight 4:47 AM EDT 9:04 PM EDT
Nautical Twilight 4:02 AM EDT 9:49 PM EDT
Astronomical Twilight 3:07 AM EDT 10:43 PM EDT
Moon 9:15 PM EDT (7/17) 5:52 AM EDT (7/17)
Length of Visible Light 16h 17m
Length of Day
15h 07m
Waxing Gibbous, 99% of the Moon is Illuminated
Jul 17
Waxing Gibbous
Jul 24
Last Quarter
Jul 31
New
Aug 7
First Quarter
Aug 15
Full

Hourly Weather History & Observations

Time (EDT) Temp. Dew Point Humidity Pressure Visibility Wind Dir Wind Speed Gust Speed Precip Events Conditions
12:51 AM 73.0 °F 66.0 °F 79% 29.95 in 10.0 mi Calm Calm - N/A   Mostly Cloudy
1:51 AM 73.9 °F 66.0 °F 76% 29.94 in 10.0 mi South 5.8 mph - N/A   Partly Cloudy
2:51 AM 73.9 °F 64.9 °F 73% 29.93 in 10.0 mi South 9.2 mph - N/A   Partly Cloudy
3:51 AM 72.0 °F 64.9 °F 78% 29.92 in 10.0 mi South 9.2 mph - N/A   Scattered Clouds
4:51 AM 73.0 °F 64.9 °F 76% 29.92 in 10.0 mi SSW 3.5 mph - N/A   Overcast
5:51 AM 73.9 °F 64.9 °F 73% 29.92 in 10.0 mi North - - N/A   Overcast
6:51 AM 70.0 °F 66.9 °F 90% 29.94 in 6.0 mi Variable 4.6 mph - 0.03 in Rain Light Rain
7:51 AM 70.0 °F 69.1 °F 97% 29.94 in 9.0 mi Calm Calm - 0.10 in Rain Light Rain
8:51 AM 71.1 °F 70.0 °F 96% 29.95 in 10.0 mi Calm Calm - 0.05 in Rain Light Rain
9:17 AM 71.1 °F 69.1 °F 93% 29.97 in 10.0 mi Calm Calm - 0.00 in   Overcast
9:51 AM 72.0 °F 69.1 °F 91% 29.95 in 10.0 mi WSW 4.6 mph - 0.00 in   Overcast
10:35 AM 73.0 °F 69.1 °F 87% 29.95 in 10.0 mi WSW 3.5 mph - 0.00 in Rain Light Rain
10:51 AM 73.0 °F 70.0 °F 90% 29.94 in 10.0 mi Calm Calm - 0.00 in   Mostly Cloudy
11:51 AM 75.9 °F 71.1 °F 85% 29.94 in 10.0 mi West 5.8 mph - N/A   Clear
12:51 PM 78.1 °F 69.1 °F 74% 29.92 in 10.0 mi West 4.6 mph - N/A   Mostly Cloudy
1:51 PM 77.0 °F 68.0 °F 74% 29.93 in 10.0 mi SSW 6.9 mph - N/A   Scattered Clouds
2:51 PM 77.0 °F 68.0 °F 74% 29.92 in 10.0 mi SSW 5.8 mph - N/A   Mostly Cloudy
3:51 PM 75.9 °F 70.0 °F 82% 29.88 in 10.0 mi South 5.8 mph - 0.00 in   Scattered Clouds
4:51 PM 75.9 °F 71.1 °F 85% 29.91 in 10.0 mi NW 3.5 mph - N/A   Scattered Clouds
5:51 PM 73.9 °F 68.0 °F 82% 29.93 in 10.0 mi NW 12.7 mph - 0.00 in   Overcast
5:56 PM 72.0 °F 68.0 °F 87% 29.94 in 1.5 mi NW 5.8 mph 16.1 mph 0.17 in Rain Heavy Rain
6:05 PM 71.1 °F 69.1 °F 93% 29.95 in 3.0 mi NW 10.4 mph - 0.18 in Rain Light Rain
6:18 PM 69.1 °F 68.0 °F 96% 29.96 in 1.8 mi North 8.1 mph 17.3 mph 0.32 in Rain Rain
6:28 PM 69.1 °F 68.0 °F 96% 29.96 in 3.0 mi NNW 4.6 mph - 0.35 in Rain Light Rain
6:51 PM 69.1 °F 69.1 °F 100% 29.94 in 7.0 mi NW 3.5 mph - 0.42 in Rain Light Rain
7:51 PM 69.1 °F 69.1 °F 100% 29.94 in 10.0 mi Calm Calm - 0.04 in   Mostly Cloudy
8:51 PM 69.1 °F 69.1 °F 100% 29.96 in 10.0 mi Calm Calm - N/A   Overcast
9:51 PM 68.0 °F 68.0 °F 100% 29.98 in 10.0 mi Calm Calm - 0.00 in   Overcast
10:01 PM 68.0 °F 68.0 °F 100% 29.99 in 2.5 mi NNW 3.5 mph - 0.01 in Rain Light Rain
10:12 PM 68.0 °F 68.0 °F 100% 29.99 in 5.0 mi Calm Calm - 0.01 in Rain Light Rain
10:28 PM 68.0 °F 68.0 °F 100% 30.00 in 10.0 mi Variable 3.5 mph - 0.01 in   Overcast
10:31 PM 68.0 °F 68.0 °F 100% 30.00 in 5.0 mi Calm Calm - 0.01 in   Overcast
10:43 PM 68.0 °F 68.0 °F 100% 29.99 in 5.0 mi Calm Calm - 0.01 in   Overcast
10:49 PM 66.2 °F 66.2 °F 100% 30.00 in 1.8 mi NNW 3.5 mph - 0.01 in   Overcast
10:51 PM 66.9 °F 66.9 °F 100% 29.99 in 1.2 mi NNW 4.6 mph - 0.01 in   Overcast
10:54 PM 66.9 °F 66.9 °F 100% 30.00 in 0.8 mi NW 4.6 mph - N/A   Overcast
11:06 PM 66.9 °F 66.9 °F 100% 30.00 in 1.2 mi NNW 3.5 mph - N/A   Overcast
11:15 PM 66.9 °F 66.9 °F 100% 30.01 in 1.5 mi NNW 3.5 mph - N/A   Overcast
11:25 PM 66.9 °F 66.9 °F 100% 30.01 in 3.0 mi NNW 5.8 mph - N/A   Overcast
11:39 PM 66.9 °F 66.9 °F 100% 30.01 in 10.0 mi NNW 3.5 mph - N/A   Scattered Clouds
11:51 PM 66.0 °F 66.0 °F 100% 30.00 in 8.0 mi NW 3.5 mph - N/A   Scattered Clouds
11:59 PM 66.0 °F 66.0 °F 100% 30.01 in 6.0 mi NNW 3.5 mph - N/A   Mostly Cloudy